Flag for Canada Weather past 2 weeks in Fredericton, New Brunswick, Canada

Now
36 °F

Clear.


Feels Like: 29 °F
Forecast: 38 / 59 °F
Wind: 9 mph from Southwest

Location: Fredericton

Current Time: Sep 20, 2014 at 7:07:25 AM

Latest Report: Sep 20, 2014 at 6:00 AM


Visibility: 9 mi

Pressure: 30.32 "Hg

Humidity: 93%

Dew point: 34 °F

Location of FrederictonLocation

Historic Weather in Fredericton — Graph

°F

Fredericton temperature yesterday

Maximum temperature yesterday: 55 °F (at 3:00 PM)
Minimum temperature yesterday: 32 °F (at 7:00 AM)
Average temperature yesterday: 43 °F

Past Weeks' High & Low Weather Summary

 TemperatureHumidityPressure
High86 °F (Sep 6, 2:00 PM)100% (Sep 5, 6:00 AM)30.47 "Hg (Sep 5, 6:00 AM)
Low32 °F (Sep 19, 7:00 AM)24% (Sep 8, 5:00 PM)29.63 "Hg (Sep 6, 5:00 PM)
Average54 °F79%30.08 "Hg
* Reported Sep 5 6:00 AM — Sep 20 6:00 AM, Fredericton, Weather by CustomWeather, © 2014

Note: Actual official high and low records may vary slightly from our data, if they occured in-between our weather recording intervals... More about our weather records

Advertising

Fredericton weather history for previous 24 hours

 ConditionsComfort  
Time TempWeatherWind HumidityBarometerVisibility
6:00 AM
Sep 20
36 °FClear.9 mph93%30.32 "Hg9 mi
5:00 AM36 °FPassing clouds.6 mph93%30.34 "Hg9 mi
4:00 AM37 °FOvercast.6 mph87%30.34 "Hg9 mi
3:00 AM36 °FOvercast.3 mph93%30.35 "Hg9 mi
2:00 AM37 °FPassing clouds.7 mph81%30.37 "Hg9 mi
1:50 AM36 °FPassing clouds.6 mph87%30.36 "Hg9 mi
1:00 AM37 °FOvercast.7 mph81%30.36 "Hg9 mi
12:00 AM36 °FPassing clouds.5 mph87%30.37 "Hg9 mi
11:00 PM
Sep 19
36 °FClear.5 mph87%30.37 "Hg9 mi
10:00 PM36 °FClear.7 mph87%30.37 "Hg9 mi
9:00 PM37 °FClear.6 mph81%30.36 "Hg9 mi
8:00 PM45 °FSunny.6 mph57%30.35 "Hg9 mi
7:00 PM50 °FSunny.5 mph43%30.33 "Hg9 mi
6:00 PM54 °FSunny.8 mph35%30.33 "Hg9 mi
5:00 PM55 °FSunny.8 mph26%30.32 "Hg9 mi
4:00 PM55 °FSunny.10 mph24%30.32 "Hg9 mi
3:00 PM55 °FSunny.15 mph26%30.31 "Hg9 mi
2:00 PM54 °FSunny.13 mph28%30.31 "Hg9 mi
1:00 PM52 °FSunny.13 mph41%30.31 "Hg9 mi
12:00 PM50 °FSunny.13 mph43%30.30 "Hg9 mi
11:00 AM46 °FSunny.10 mph57%30.31 "Hg9 mi
10:00 AM43 °FSunny.13 mph61%30.29 "Hg9 mi
9:00 AM39 °FSunny.13 mph70%30.27 "Hg9 mi
8:00 AM36 °FClear.9 mph81%30.25 "Hg9 mi
7:00 AM32 °FClear.7 mph93%30.22 "Hg9 mi
Weather by CustomWeather, © 2014

See weather overviewHow to use our weather pages